Tracking 29892 objects as of 21-Nov-2024
HD Live streaming from Space Station
objects crossing your sky now

STARLINK-1217

Track STARLINK-1217 now!
10-day predictions
STARLINK-1217 is classified as:


NORAD ID: 45226
Int'l Code: 2020-012BA
Perigee: 553.2 km
Apogee: 555.3 km
Inclination: 53.1 °
Period: 95.6 minutes
Semi major axis: 6925 km
RCS: Unknown
Launch date: February 17, 2020
Source: United States (US)
Launch site: AIR FORCE EASTERN TEST RANGE (AFETR)
Your satellite tracking list
Your tracking list is empty




NASA's NSSDC Master Catalog

Two Line Element Set (TLE):
1 45226U 20012BA  24325.06470707  .00006598  00000-0  46118-3 0  9992
2 45226  53.0546 337.2935 0001531  89.5435 270.5730 15.06422282263771
Source of the keplerian elements: AFSPC